Location: Alsip
(41.6689°N, 87.7387°W)
Time: 14:16:44
(UTC+00:00)

Cosmos 1500 Rocket - Pass Details

Date: 14 July 2020
Orbit: 602 x 632 km, 82.5° (Epoch: 04 August)

Event Time Altitude Azimuth Distance (km) Brightness Sun altitude
Exits shadow 05:12:10 69° 342° (NNW) 661 3.7 -25.9°
Drops below altitude 10° 05:16:04 10° 6° (N) 1,975 7.1 -26.0°
Sets 05:18:17 0° 7° (N) 2,880 8.2 -26.1°
